#timestamp,LO_Frequency,Hit,StdDev 
1502848815.5,286047004.0,N,1.3
1502848835.3,286047004.3,Y,0.0
1502848855.2,286047002.6,P,0.6
1502848875.0,286047002.5,P,0.6
1502848875.9,286047002.5,P,0.5
1502848895.7,286047001.5,N,0.6
1502848915.6,286047002.1,Y,0.0
1502848935.4,286046998.6,P,1.7
1502848955.3,286046998.1,N,1.8
1502848975.1,286046998.9,N,1.6
1502848995.8,286046998.5,N,1.4
1502849015.7,286046999.3,N,1.3
1502849035.5,286046999.4,N,1.2
1502849055.4,286046996.5,N,1.5
1502849075.2,286046997.0,N,1.5
1502849095.0,286046996.7,N,1.6
1502849095.9,286046996.7,N,1.6
1502849115.8,286046996.5,N,1.6
1502849135.6,286046997.9,N,1.5
1502849155.4,286046997.2,N,1.5
1502849175.3,286046997.9,N,1.4
1502849195.1,286046997.9,N,1.4
1502849215.9,286046995.8,Y,0.0
1502849235.7,286046998.9,P,0.4
1502849255.5,286046996.7,P,0.9
1502849275.4,286046997.0,P,0.9
1502849295.2,286046996.5,Y,0.0
1502849315.1,286047001.1,P,1.7
1502849316.0,286047001.1,N,1.6
1502849335.8,286046998.1,N,1.6
1502849355.6,286046998.2,N,1.5
1502849375.5,286046999.0,N,1.4
1502849395.3,286046998.9,N,1.3
1502849415.2,286046999.4,N,1.2
1502849435.9,286046996.5,N,1.4
1502849455.7,286046997.8,N,1.4
1502849475.6,286046999.2,N,1.3
1502849495.4,286046999.6,N,1.3
1502849515.2,286046999.6,N,1.3
1502849535.1,286046997.7,N,1.3
1502849536.0,286046997.7,N,1.2
1502849555.8,286046996.7,N,1.3
1502849575.7,286046997.0,N,1.3
1502849595.5,286046998.0,N,1.3
1502849615.3,286046997.1,N,1.3
1502849635.2,286046997.3,N,1.3
1502849655.0,286046997.3,N,1.3
1502849655.9,286046997.3,N,1.3
1502849675.8,286046995.5,Y,0.0
1502849695.6,286046997.1,P,0.6
1502849715.4,286046996.5,P,0.7
1502849735.3,286046997.3,P,0.6
1502849755.1,286046997.9,Y,0.0
1502849775.9,286046998.6,P,0.7
1502849795.7,286046998.5,N,0.6
1502849815.5,286046998.9,N,0.6
1502849835.4,286046999.4,N,0.7
1502849855.2,286046999.5,N,0.7
1502849875.0,286046999.6,N,0.7
1502849875.9,286046999.6,N,0.7
1502849895.8,286046999.1,N,0.7
1502849915.6,286046996.9,Y,0.0
1502849935.5,286046999.6,P,0.3
1502849955.3,286046998.9,P,0.3
1502849975.1,286046999.0,P,0.3
1502849995.9,286046996.6,Y,0.0
1502850015.7,286046998.6,P,0.3
1502850035.6,286046998.6,P,0.2
1502850055.4,286046996.5,P,1.0
1502850075.2,286046999.0,N,1.0
1502850095.1,286046999.6,N,1.0
1502850096.0,286046999.6,N,1.0
1502850115.8,286046999.0,N,0.9
1502850135.7,286046999.6,N,0.9
1502850155.5,286046998.4,N,0.9
1502850175.3,286046998.5,N,0.8
1502850195.2,286046999.3,N,0.8
1502850215.0,286046996.5,Y,0.0
1502850215.9,286046996.5,P,1.2
1502850235.8,286047001.1,N,1.9
1502850255.6,286046998.9,N,1.6
1502850275.4,286046998.3,N,1.5
1502850295.3,286046998.5,N,1.3
1502850315.1,286046998.3,N,1.3
1502850335.9,286046999.3,N,1.2
1502850355.7,286046998.9,N,1.1
1502850375.5,286046997.0,N,1.2
1502850395.4,286046997.0,N,1.2
1502850415.2,286046999.6,N,1.2
1502850435.0,286046997.1,N,1.2
1502850435.9,286046997.1,N,1.2
1502850455.8,286046997.0,N,1.2
1502850475.6,286046996.8,N,1.2
1502850495.5,286046996.5,N,1.3
1502850515.3,286046996.9,N,1.3
1502850535.1,286046999.5,N,1.3
1502850555.9,286046999.5,N,1.3
1502850575.7,286046996.5,N,1.3
1502850595.6,286046997.1,N,1.3
1502850615.4,286046996.9,N,1.3
1502850635.2,286046997.4,N,1.2
1502850655.1,286046999.4,N,1.3
1502850656.0,286046999.4,N,1.3
1502850675.8,286046997.3,N,1.2
1502850695.7,286046996.7,N,1.2
1502850715.5,286046997.0,N,1.2
1502850735.3,286046997.4,N,1.2
1502850755.2,286046996.6,N,1.2
1502850775.9,286046996.8,N,1.2
1502850795.7,286046996.5,N,1.1
1502850815.6,286046996.5,Y,0.0
1502850835.4,286047000.4,P,1.3
1502850855.3,286046999.8,N,1.2
1502850875.1,286047002.8,N,1.8
1502850876.0,286047002.8,N,1.9
1502850895.8,286047002.2,N,1.9
1502850915.7,286047002.8,N,1.8
1502850935.5,286047002.8,N,1.8
1502850955.3,286047002.4,N,1.7
1502850975.2,286047002.4,N,1.7
1502850995.0,286047002.1,N,1.6
1502850995.9,286047002.1,N,1.5
1502851015.8,286047002.2,N,1.5
1502851035.6,286047002.2,N,1.4
1502851055.4,286047001.9,N,1.4
1502851075.3,286047001.7,N,1.3
1502851095.1,286047003.9,N,1.4
1502851115.9,286047001.4,N,1.3
1502851135.7,286047001.3,N,1.3
1502851155.5,286047001.3,N,1.3
1502851175.4,286047003.8,N,1.3
1502851195.2,286047003.9,N,1.4
1502851215.0,286047004.1,N,1.4
1502851215.9,286047004.1,N,1.4
1502851235.8,286047003.6,N,1.4
1502851255.6,286047004.3,N,1.5
1502851275.5,286047004.0,N,1.5
1502851295.3,286047003.8,N,1.5
1502851315.1,286047003.5,N,1.4
1502851335.9,286047003.1,N,1.4
1502851355.7,286047003.1,N,1.1
1502851375.6,286047003.2,N,1.0
1502851395.4,286047003.5,Y,0.0
1502851415.2,286047002.4,P,0.2
1502851435.1,286047002.2,P,0.2
1502851436.0,286047002.2,P,0.2
1502851455.8,286047002.7,Y,0.0
1502851475.7,286046998.7,P,1.8
1502851495.5,286047000.7,N,1.5
1502851515.3,286046998.5,N,1.6
1502851535.2,286047001.1,N,1.5
1502851555.0,286046999.9,N,1.4
1502851555.9,286046999.9,N,1.3
1502851575.7,286046998.1,N,1.4
1502851595.6,286047000.3,N,1.3
1502851615.4,286046998.6,N,1.3
1502851635.3,286047000.8,N,1.3
1502851655.1,286047000.8,N,1.2
1502851656.0,286047000.8,N,1.2
1502851675.8,286047000.5,N,1.2
1502851695.7,286047001.0,N,1.2
1502851715.5,286047001.1,N,1.1
1502851735.3,286047000.0,N,1.1
1502851755.2,286047000.1,N,1.1
1502851775.0,286047002.7,N,1.2
1502851775.9,286047002.7,N,1.3
1502851795.8,286047002.3,N,1.3
1502851815.6,286047001.5,N,1.3
1502851835.4,286047001.4,N,1.3
1502851855.3,286047004.3,Y,0.0
1502851875.1,286047004.3,P,1.8
1502851895.9,286047002.1,N,1.5
1502851915.7,286047001.6,N,1.4
1502851935.5,286047001.8,N,1.2
1502851955.4,286047002.5,N,1.1
1502851975.2,286047002.6,N,1.1
1502851995.0,286047002.0,N,1.0
1502851996.0,286047002.0,N,0.9
1502852015.8,286047002.2,N,0.9
1502852035.6,286047000.3,N,1.0
1502852055.5,286047002.3,N,1.0
1502852075.3,286047002.3,N,0.9
1502852095.1,286047002.6,N,0.9
1502852115.9,286047000.1,N,1.0
1502852135.7,286047002.7,N,1.0
1502852155.6,286047002.2,N,1.0
1502852175.4,286047002.3,N,0.9
1502852195.2,286047002.1,N,0.9
1502852215.1,286047002.0,N,0.9
1502852216.0,286047002.0,N,0.9
1502852235.8,286047002.3,N,0.8
1502852255.7,286047002.2,N,0.8
1502852275.5,286047003.9,Y,0.0
1502852295.3,286047000.1,P,1.0
1502852315.2,286047002.3,N,1.0
1502852335.0,286047002.6,N,1.0
1502852335.9,286047002.6,N,0.9
1502852355.7,286047002.4,N,0.9
1502852375.6,286047002.3,N,0.8
1502852395.4,286047001.5,N,0.8
